Year,Month,Day,Hour,Minute,Value (Times are PST for temperature in C)
2012,07,11,00,02,14.70
2012,07,11,00,04,14.60
2012,07,11,00,05,14.60
2012,07,11,00,06,14.60
2012,07,11,00,07,14.60
2012,07,11,00,09,14.60
2012,07,11,00,10,14.60
2012,07,11,00,11,14.60
2012,07,11,00,12,14.60
2012,07,11,00,14,14.60
2012,07,11,00,15,14.60
2012,07,11,00,17,14.50
2012,07,11,00,18,14.50
2012,07,11,00,20,14.50
2012,07,11,00,21,14.50
2012,07,11,00,22,14.50
2012,07,11,00,23,14.40
2012,07,11,00,25,14.40
2012,07,11,00,26,14.40
2012,07,11,00,27,14.40
2012,07,11,00,28,14.40
2012,07,11,00,29,14.40
2012,07,11,00,31,14.40
2012,07,11,00,32,14.40
2012,07,11,00,33,14.40
2012,07,11,00,34,14.40
2012,07,11,00,36,14.40
2012,07,11,00,37,14.40
2012,07,11,00,38,14.40
2012,07,11,00,39,14.40
2012,07,11,00,40,14.40
2012,07,11,00,41,14.40
2012,07,11,00,42,14.40
2012,07,11,00,44,14.40
2012,07,11,00,45,14.30
2012,07,11,00,46,14.30
2012,07,11,00,47,14.30
2012,07,11,00,48,14.30
2012,07,11,00,50,14.30
2012,07,11,00,51,14.30
2012,07,11,00,52,14.30
2012,07,11,00,54,14.30
2012,07,11,00,55,14.30
2012,07,11,00,56,14.30
2012,07,11,00,57,14.30
2012,07,11,00,59,14.30
2012,07,11,01,00,14.30
2012,07,11,01,01,14.30
2012,07,11,01,02,14.20
2012,07,11,01,03,14.20
2012,07,11,01,05,14.20
2012,07,11,01,06,14.20
2012,07,11,01,07,14.20
2012,07,11,01,08,14.10
2012,07,11,01,10,14.10
2012,07,11,01,11,14.10
2012,07,11,01,12,14.10
2012,07,11,01,13,14.00
2012,07,11,01,14,14.00
2012,07,11,01,16,13.90
2012,07,11,01,17,13.90
2012,07,11,01,18,13.90
2012,07,11,01,19,13.80
2012,07,11,01,20,13.80
2012,07,11,01,21,13.80
2012,07,11,01,22,13.80
2012,07,11,01,23,13.70
2012,07,11,01,25,13.70
2012,07,11,01,26,13.70
2012,07,11,01,27,13.60
2012,07,11,01,28,13.60
2012,07,11,01,29,13.50
2012,07,11,01,30,13.50
2012,07,11,01,31,13.40
2012,07,11,01,32,13.40
2012,07,11,01,33,13.30
2012,07,11,01,35,13.30
2012,07,11,01,36,13.20
2012,07,11,01,37,13.20
2012,07,11,01,38,13.20
2012,07,11,01,40,13.10
2012,07,11,01,41,13.10
2012,07,11,01,42,13.00
2012,07,11,01,43,13.00
2012,07,11,01,44,12.90
2012,07,11,01,45,12.90
2012,07,11,01,46,12.90
2012,07,11,01,47,12.80
2012,07,11,01,49,12.80
2012,07,11,01,50,12.80
2012,07,11,01,51,12.70
2012,07,11,01,53,12.70
2012,07,11,01,54,12.70
2012,07,11,01,55,12.70
2012,07,11,01,57,12.70
2012,07,11,01,58,12.60
2012,07,11,01,59,12.60
2012,07,11,02,01,12.60
2012,07,11,02,02,12.60
2012,07,11,02,03,12.50
2012,07,11,02,04,12.50
2012,07,11,02,05,12.50
2012,07,11,02,06,12.40
2012,07,11,02,07,12.40
2012,07,11,02,09,12.40
2012,07,11,02,10,12.40
2012,07,11,02,11,12.40
2012,07,11,02,13,12.40
2012,07,11,02,14,12.40
2012,07,11,02,15,12.40
2012,07,11,02,16,12.30
2012,07,11,02,17,12.30
2012,07,11,02,18,12.30
2012,07,11,02,19,12.30
2012,07,11,02,20,12.30
2012,07,11,02,21,12.30
2012,07,11,02,22,12.30
2012,07,11,02,23,12.30
2012,07,11,02,24,12.30
2012,07,11,02,25,12.30
2012,07,11,02,26,12.30
2012,07,11,02,27,12.30
2012,07,11,02,28,12.30
2012,07,11,02,29,12.30
2012,07,11,02,31,12.30
2012,07,11,02,32,12.30
2012,07,11,02,33,12.20
2012,07,11,02,34,12.20
2012,07,11,02,35,12.20
2012,07,11,02,37,12.20
2012,07,11,02,38,12.20
2012,07,11,02,39,12.20
2012,07,11,02,40,12.20
2012,07,11,02,42,12.20
2012,07,11,02,43,12.20
2012,07,11,02,44,12.20
2012,07,11,02,46,12.20
2012,07,11,02,47,12.20
2012,07,11,02,48,12.20
2012,07,11,02,49,12.20
2012,07,11,02,50,12.10
2012,07,11,02,52,12.10
2012,07,11,02,53,12.10
2012,07,11,02,54,12.10
2012,07,11,02,56,12.10
2012,07,11,02,57,12.10
2012,07,11,02,58,12.10
2012,07,11,02,59,12.10
2012,07,11,03,01,12.10
2012,07,11,03,02,12.00
2012,07,11,03,03,12.00
2012,07,11,03,04,12.00
2012,07,11,03,05,12.00
2012,07,11,03,07,12.00
2012,07,11,03,08,12.00
2012,07,11,03,09,11.90
2012,07,11,03,10,11.90
2012,07,11,03,12,11.90
2012,07,11,03,13,11.90
2012,07,11,03,14,11.90
2012,07,11,03,15,11.90
2012,07,11,03,16,11.90
2012,07,11,03,18,11.90
2012,07,11,03,19,11.90
2012,07,11,03,23,11.90
2012,07,11,03,24,11.90
2012,07,11,03,25,11.90
2012,07,11,03,26,11.90
2012,07,11,03,27,11.90
2012,07,11,03,28,11.80
2012,07,11,03,30,11.80
2012,07,11,03,31,11.80
2012,07,11,03,32,11.80
2012,07,11,03,33,11.80
2012,07,11,03,34,11.80
2012,07,11,03,35,11.80
2012,07,11,03,36,11.80
2012,07,11,03,37,11.80
2012,07,11,03,38,11.80
2012,07,11,03,39,11.80
2012,07,11,03,40,11.80
2012,07,11,03,41,11.80
2012,07,11,03,42,11.80
2012,07,11,03,44,11.80
2012,07,11,03,45,11.80
2012,07,11,03,46,11.80
2012,07,11,03,47,11.80
2012,07,11,03,48,11.80
2012,07,11,03,49,11.80
2012,07,11,03,50,11.80
2012,07,11,03,51,11.80
2012,07,11,03,52,11.80
2012,07,11,03,53,11.80
2012,07,11,03,54,11.80
2012,07,11,03,55,11.80
2012,07,11,03,56,11.80
2012,07,11,03,57,11.70
2012,07,11,03,58,11.70
2012,07,11,03,59,11.70
2012,07,11,04,00,11.70
2012,07,11,04,01,11.70
2012,07,11,04,02,11.70
2012,07,11,04,03,11.70
2012,07,11,04,04,11.70
2012,07,11,04,05,11.70
2012,07,11,04,06,11.70
2012,07,11,04,07,11.70
2012,07,11,04,08,11.70
2012,07,11,04,09,11.70
2012,07,11,04,10,11.70
2012,07,11,04,11,11.70
2012,07,11,04,12,11.70
2012,07,11,04,13,11.70
2012,07,11,04,15,11.70
2012,07,11,04,16,11.70
2012,07,11,04,17,11.70
2012,07,11,04,18,11.70
2012,07,11,04,19,11.70
2012,07,11,04,20,11.70
2012,07,11,04,21,11.70
2012,07,11,04,22,11.70
2012,07,11,04,24,11.70
2012,07,11,04,25,11.70
2012,07,11,04,26,11.70
2012,07,11,04,27,11.70
2012,07,11,04,28,11.70
2012,07,11,04,29,11.70
2012,07,11,04,30,11.70
2012,07,11,04,31,11.60
2012,07,11,04,32,11.60
2012,07,11,04,34,11.60
2012,07,11,04,35,11.60
2012,07,11,04,36,11.60
2012,07,11,04,37,11.60
2012,07,11,04,39,11.60
2012,07,11,04,40,11.60
2012,07,11,04,41,11.60
2012,07,11,04,43,11.60
2012,07,11,04,44,11.60
2012,07,11,04,45,11.60
2012,07,11,04,46,11.60
2012,07,11,04,48,11.60
2012,07,11,04,49,11.60
2012,07,11,04,50,11.60
2012,07,11,04,51,11.60
2012,07,11,04,53,11.50
2012,07,11,04,54,11.50
2012,07,11,04,55,11.50
2012,07,11,04,56,11.50
2012,07,11,04,57,11.50
2012,07,11,04,58,11.50
2012,07,11,04,59,11.50
2012,07,11,05,00,11.50
2012,07,11,05,02,11.40
2012,07,11,05,03,11.40
2012,07,11,05,04,11.40
2012,07,11,05,05,11.40
2012,07,11,05,07,11.40
2012,07,11,05,08,11.40
2012,07,11,05,09,11.40
2012,07,11,05,10,11.40
2012,07,11,05,11,11.40
2012,07,11,05,12,11.40
2012,07,11,05,13,11.40
2012,07,11,05,15,11.40
2012,07,11,05,16,11.30
2012,07,11,05,17,11.30
2012,07,11,05,18,11.30
2012,07,11,05,19,11.30
2012,07,11,05,20,11.30
2012,07,11,05,21,11.30
2012,07,11,05,22,11.30
2012,07,11,05,24,11.30
2012,07,11,05,25,11.30
2012,07,11,05,26,11.30
2012,07,11,05,27,11.30
2012,07,11,05,28,11.30
2012,07,11,05,30,11.30
2012,07,11,05,31,11.30
2012,07,11,05,32,11.30
2012,07,11,05,33,11.30
2012,07,11,05,34,11.30
2012,07,11,05,36,11.30
2012,07,11,05,37,11.30
2012,07,11,05,38,11.30
2012,07,11,05,40,11.30
2012,07,11,05,41,11.30
2012,07,11,05,42,11.30
2012,07,11,05,43,11.30
2012,07,11,05,45,11.30
2012,07,11,05,46,11.30
2012,07,11,05,47,11.30
2012,07,11,05,49,11.30
2012,07,11,05,50,11.30
2012,07,11,05,51,11.30
2012,07,11,05,53,11.30
2012,07,11,05,54,11.30
2012,07,11,05,55,11.30
2012,07,11,05,56,11.30
2012,07,11,05,57,11.30
2012,07,11,05,58,11.40
2012,07,11,05,59,11.40
2012,07,11,06,00,11.40
2012,07,11,06,01,11.40
2012,07,11,06,03,11.40
2012,07,11,06,04,11.40
2012,07,11,06,05,11.40
2012,07,11,06,06,11.30
2012,07,11,06,08,11.40
2012,07,11,06,09,11.30
2012,07,11,06,10,11.30
2012,07,11,06,11,11.30
2012,07,11,06,13,11.30
2012,07,11,06,14,11.30
2012,07,11,06,15,11.30
2012,07,11,06,16,11.30
2012,07,11,06,18,11.30
2012,07,11,06,19,11.30
2012,07,11,06,20,11.30
2012,07,11,06,21,11.20
2012,07,11,06,23,11.20
2012,07,11,06,24,11.20
2012,07,11,06,25,11.20
2012,07,11,06,26,11.20
2012,07,11,06,28,11.20
2012,07,11,06,29,11.20
2012,07,11,06,30,11.20
2012,07,11,06,31,11.20
2012,07,11,06,32,11.20
2012,07,11,06,34,11.20
2012,07,11,06,35,11.30
2012,07,11,06,36,11.30
2012,07,11,06,37,11.30
2012,07,11,06,39,11.20
2012,07,11,06,40,11.20
2012,07,11,06,41,11.20
2012,07,11,06,43,11.20
2012,07,11,06,44,11.20
2012,07,11,06,45,11.20
2012,07,11,06,46,11.20
2012,07,11,06,47,11.20
2012,07,11,06,48,11.10
2012,07,11,06,49,11.10
2012,07,11,06,50,11.10
2012,07,11,06,51,11.10
2012,07,11,06,52,11.10
2012,07,11,06,53,11.10
2012,07,11,06,54,11.10
2012,07,11,06,55,11.10
2012,07,11,06,57,11.10
2012,07,11,06,58,11.10
2012,07,11,06,59,11.00
2012,07,11,07,00,11.00
2012,07,11,07,01,11.00
2012,07,11,07,03,10.90
2012,07,11,07,04,10.90
2012,07,11,07,05,10.90
2012,07,11,07,06,10.90
2012,07,11,07,07,10.90
2012,07,11,07,09,10.90
2012,07,11,07,10,10.90
2012,07,11,07,11,10.90
2012,07,11,07,12,10.80
2012,07,11,07,13,10.80
2012,07,11,07,14,10.80
2012,07,11,07,15,10.90
2012,07,11,07,16,10.90
2012,07,11,07,17,10.90
2012,07,11,07,19,10.90
2012,07,11,07,20,10.90
2012,07,11,07,21,10.90
2012,07,11,07,22,10.90
2012,07,11,07,24,10.90
2012,07,11,07,25,10.90
2012,07,11,07,26,10.90
2012,07,11,07,27,10.90
2012,07,11,07,28,10.90
2012,07,11,07,30,10.90
2012,07,11,07,31,10.90
2012,07,11,07,32,10.90
2012,07,11,07,33,10.90
2012,07,11,07,34,10.90
2012,07,11,07,35,10.90
2012,07,11,07,36,11.10
2012,07,11,07,37,11.10
2012,07,11,07,38,11.20
2012,07,11,07,40,11.30
2012,07,11,07,41,11.30
2012,07,11,07,42,11.40
2012,07,11,07,44,11.50
2012,07,11,07,45,11.60
2012,07,11,07,46,11.70
2012,07,11,07,47,11.80
2012,07,11,07,49,11.90
2012,07,11,07,50,12.00
2012,07,11,07,51,12.10
2012,07,11,07,52,12.20
2012,07,11,07,53,12.30
2012,07,11,07,54,12.40
2012,07,11,07,55,12.50
2012,07,11,07,56,12.60
2012,07,11,07,57,12.70
2012,07,11,07,58,12.80
2012,07,11,07,59,12.80
2012,07,11,08,00,12.90
2012,07,11,08,01,12.90
2012,07,11,08,02,13.10
2012,07,11,08,03,13.20
2012,07,11,08,04,13.20
2012,07,11,08,05,13.30
2012,07,11,08,06,13.30
2012,07,11,08,07,13.40
2012,07,11,08,09,13.50
2012,07,11,08,10,13.60
2012,07,11,08,11,13.70
2012,07,11,08,12,13.80
2012,07,11,08,13,13.90
2012,07,11,08,14,14.00
2012,07,11,08,15,14.10
2012,07,11,08,16,14.10
2012,07,11,08,17,14.20
2012,07,11,08,18,14.30
2012,07,11,08,19,14.30
2012,07,11,08,21,14.50
2012,07,11,08,22,14.70
2012,07,11,08,23,14.80
2012,07,11,08,24,14.90
2012,07,11,08,25,15.00
2012,07,11,08,26,15.10
2012,07,11,08,27,15.20
2012,07,11,08,28,15.30
2012,07,11,08,29,15.30
2012,07,11,08,30,15.30
2012,07,11,08,31,15.30
2012,07,11,08,32,15.30
2012,07,11,08,33,15.40
2012,07,11,08,34,15.40
2012,07,11,08,36,15.50
2012,07,11,08,37,15.70
2012,07,11,08,38,15.80
2012,07,11,08,39,15.80
2012,07,11,08,41,15.90
2012,07,11,08,42,15.90
2012,07,11,08,43,15.90
2012,07,11,08,45,15.90
2012,07,11,08,46,16.10
2012,07,11,08,47,16.10
2012,07,11,08,49,16.20
2012,07,11,08,50,16.30
2012,07,11,08,51,16.40
2012,07,11,08,52,16.50
2012,07,11,08,54,16.60
2012,07,11,08,55,16.70
2012,07,11,08,56,16.70
2012,07,11,08,57,16.80
2012,07,11,08,58,16.80
2012,07,11,08,59,16.90
2012,07,11,09,00,16.90
2012,07,11,09,01,16.80
2012,07,11,09,02,16.80
2012,07,11,09,04,16.80
2012,07,11,09,05,16.80
2012,07,11,09,06,16.90
2012,07,11,09,07,16.90
2012,07,11,09,08,16.90
2012,07,11,09,09,17.00
2012,07,11,09,10,17.10
2012,07,11,09,11,17.10
2012,07,11,09,13,17.20
2012,07,11,09,14,17.20
2012,07,11,09,15,17.20
2012,07,11,09,16,17.30
2012,07,11,09,18,17.30
2012,07,11,09,19,17.40
2012,07,11,09,20,17.40
2012,07,11,09,21,17.50
2012,07,11,09,23,17.60
2012,07,11,09,24,17.60
2012,07,11,09,25,17.70
2012,07,11,09,26,17.70
2012,07,11,09,27,17.80
2012,07,11,09,28,17.80
2012,07,11,09,29,17.80
2012,07,11,09,30,17.80
2012,07,11,09,31,17.90
2012,07,11,09,32,17.90
2012,07,11,09,34,18.10
2012,07,11,09,35,18.10
2012,07,11,09,36,18.10
2012,07,11,09,37,18.10
2012,07,11,09,38,18.20
2012,07,11,09,39,18.20
2012,07,11,09,40,18.20
2012,07,11,09,41,18.30
2012,07,11,09,43,18.30
2012,07,11,09,44,18.40
2012,07,11,09,45,18.40
2012,07,11,09,46,18.40
2012,07,11,09,47,18.40
2012,07,11,09,48,18.40
2012,07,11,09,49,18.50
2012,07,11,09,50,18.60
2012,07,11,09,51,18.60
2012,07,11,09,53,18.70
2012,07,11,09,54,18.80
2012,07,11,09,55,18.80
2012,07,11,09,56,18.90
2012,07,11,09,58,18.90
2012,07,11,09,59,18.90
2012,07,11,10,00,18.90
2012,07,11,10,01,18.90
2012,07,11,10,02,19.00
2012,07,11,10,03,19.00
2012,07,11,10,04,19.00
2012,07,11,10,06,19.10
2012,07,11,10,07,19.10
2012,07,11,10,08,19.20
2012,07,11,10,09,19.20
2012,07,11,10,11,19.10
2012,07,11,10,12,19.20
2012,07,11,10,13,19.20
2012,07,11,10,14,19.20
2012,07,11,10,15,19.20
2012,07,11,10,16,19.20
2012,07,11,10,17,19.20
2012,07,11,10,18,19.20
2012,07,11,10,19,19.20
2012,07,11,10,20,19.30
2012,07,11,10,21,19.30
2012,07,11,10,22,19.30
2012,07,11,10,23,19.30
2012,07,11,10,24,19.40
2012,07,11,10,26,19.40
2012,07,11,10,27,19.40
2012,07,11,10,28,19.50
2012,07,11,10,29,19.50
2012,07,11,10,30,19.40
2012,07,11,10,31,19.40
2012,07,11,10,32,19.40
2012,07,11,10,33,19.40
2012,07,11,10,34,19.40
2012,07,11,10,36,19.40
2012,07,11,10,37,19.40
2012,07,11,10,38,19.40
2012,07,11,10,39,19.50
2012,07,11,10,40,19.60
2012,07,11,10,42,19.60
2012,07,11,10,43,19.60
2012,07,11,10,44,19.60
2012,07,11,10,45,19.60
2012,07,11,10,46,19.60
2012,07,11,10,47,19.60
2012,07,11,10,48,19.60
2012,07,11,10,49,19.60
2012,07,11,10,50,19.60
2012,07,11,10,52,19.50
2012,07,11,10,53,19.50
2012,07,11,10,54,19.50
2012,07,11,10,55,19.60
2012,07,11,10,56,19.60
2012,07,11,10,57,19.60
2012,07,11,10,58,19.60
2012,07,11,10,59,19.60
2012,07,11,11,00,19.70
2012,07,11,11,01,19.70
2012,07,11,11,02,19.70
2012,07,11,11,03,19.70
2012,07,11,11,04,19.70
2012,07,11,11,05,19.60
2012,07,11,11,06,19.60
2012,07,11,11,07,19.70
2012,07,11,11,08,19.70
2012,07,11,11,09,19.70
2012,07,11,11,11,19.70
2012,07,11,11,12,19.80
2012,07,11,11,13,19.80
2012,07,11,11,14,19.80
2012,07,11,11,15,19.80
2012,07,11,11,16,19.80
2012,07,11,11,17,19.90
2012,07,11,11,18,19.90
2012,07,11,11,19,20.00
2012,07,11,11,20,20.00
2012,07,11,11,22,19.90
2012,07,11,11,23,19.90
2012,07,11,11,24,20.00
2012,07,11,11,25,20.10
2012,07,11,11,27,20.10
2012,07,11,11,28,20.20
2012,07,11,11,29,20.30
2012,07,11,11,30,20.30
2012,07,11,11,32,20.30
2012,07,11,11,33,20.30
2012,07,11,11,34,20.30
2012,07,11,11,35,20.30
2012,07,11,11,37,20.40
2012,07,11,11,38,20.40
2012,07,11,11,39,20.40
2012,07,11,11,41,20.50
2012,07,11,11,42,20.50
2012,07,11,11,43,20.40
2012,07,11,11,44,20.30
2012,07,11,11,46,20.30
2012,07,11,11,47,20.30
2012,07,11,11,48,20.40
2012,07,11,11,50,20.60
2012,07,11,11,51,20.60
2012,07,11,11,52,20.40
2012,07,11,11,53,20.40
2012,07,11,11,55,20.40
2012,07,11,11,56,20.50
2012,07,11,11,57,20.60
2012,07,11,11,58,20.70
2012,07,11,12,00,20.80
2012,07,11,12,01,20.90
2012,07,11,12,02,21.00
2012,07,11,12,03,21.10
2012,07,11,12,05,21.10
2012,07,11,12,06,21.20
2012,07,11,12,07,21.30
2012,07,11,12,08,21.30
2012,07,11,12,10,21.40
2012,07,11,12,11,21.60
2012,07,11,12,12,21.70
2012,07,11,12,14,21.70
2012,07,11,12,15,21.70
2012,07,11,12,16,21.70
2012,07,11,12,17,21.60
2012,07,11,12,19,21.50
2012,07,11,12,20,21.40
2012,07,11,12,21,21.50
2012,07,11,12,22,21.50
2012,07,11,12,24,21.50
2012,07,11,12,25,21.60
2012,07,11,12,26,21.70
2012,07,11,12,27,21.80
2012,07,11,12,28,21.80
2012,07,11,12,30,21.80
2012,07,11,12,31,21.80
2012,07,11,12,32,21.80
2012,07,11,12,33,21.80
2012,07,11,12,34,21.90
2012,07,11,12,35,21.90
2012,07,11,12,36,21.90
2012,07,11,12,37,21.90
2012,07,11,12,39,21.90
2012,07,11,12,40,22.00
2012,07,11,12,41,22.10
2012,07,11,12,42,22.10
2012,07,11,12,43,22.20
2012,07,11,12,44,22.10
2012,07,11,12,45,22.00
2012,07,11,12,46,21.90
2012,07,11,12,48,21.90
2012,07,11,12,49,21.80
2012,07,11,12,50,21.80
2012,07,11,12,51,21.80
2012,07,11,12,52,21.80
2012,07,11,12,53,21.80
2012,07,11,12,54,21.80
2012,07,11,12,55,21.80
2012,07,11,12,57,21.80
2012,07,11,12,58,21.80
2012,07,11,12,59,21.80
2012,07,11,13,00,21.80
2012,07,11,13,01,21.90
2012,07,11,13,03,21.90
2012,07,11,13,04,22.10
2012,07,11,13,05,22.10
2012,07,11,13,06,22.20
2012,07,11,13,08,22.30
2012,07,11,13,09,22.30
2012,07,11,13,10,22.30
2012,07,11,13,11,22.30
2012,07,11,13,12,22.40
2012,07,11,13,13,22.40
2012,07,11,13,14,22.50
2012,07,11,13,15,22.60
2012,07,11,13,16,22.60
2012,07,11,13,17,22.70
2012,07,11,13,19,22.80
2012,07,11,13,20,23.10
2012,07,11,13,21,23.20
2012,07,11,13,23,23.30
2012,07,11,13,24,23.20
2012,07,11,13,25,23.00
2012,07,11,13,26,23.00
2012,07,11,13,27,23.10
2012,07,11,13,29,23.20
2012,07,11,13,30,23.30
2012,07,11,13,31,23.40
2012,07,11,13,33,23.40
2012,07,11,13,34,23.50
2012,07,11,13,35,23.60
2012,07,11,13,36,23.50
2012,07,11,13,37,23.40
2012,07,11,13,39,23.40
2012,07,11,13,40,23.50
2012,07,11,13,41,23.50
2012,07,11,13,42,23.50
2012,07,11,13,44,23.50
2012,07,11,13,45,23.50
2012,07,11,13,46,23.40
2012,07,11,13,47,23.40
2012,07,11,13,48,23.40
2012,07,11,13,50,23.40
2012,07,11,13,51,23.30
2012,07,11,13,52,23.20
2012,07,11,13,53,23.00
2012,07,11,13,55,22.90
2012,07,11,13,56,23.00
2012,07,11,13,57,23.00
2012,07,11,13,58,23.10
2012,07,11,14,00,23.20
2012,07,11,14,01,23.20
2012,07,11,14,02,23.20
2012,07,11,14,03,23.20
2012,07,11,14,05,23.30
2012,07,11,14,06,23.40
2012,07,11,14,07,23.40
2012,07,11,14,08,23.60
2012,07,11,14,10,23.70
2012,07,11,14,11,23.80
2012,07,11,14,12,23.90
2012,07,11,14,13,24.00
2012,07,11,14,14,24.00
2012,07,11,14,15,24.10
2012,07,11,14,16,24.20
2012,07,11,14,17,24.20
2012,07,11,14,19,24.10
2012,07,11,14,20,23.90
2012,07,11,14,21,23.80
2012,07,11,14,22,23.70
2012,07,11,14,24,23.70
2012,07,11,14,25,23.80
2012,07,11,14,26,23.90
2012,07,11,14,28,24.10
2012,07,11,14,29,24.00
2012,07,11,14,30,23.90
2012,07,11,14,31,23.80
2012,07,11,14,33,23.80
2012,07,11,14,34,23.70
2012,07,11,14,35,23.70
2012,07,11,14,36,23.70
2012,07,11,14,37,23.70
2012,07,11,14,38,23.80
2012,07,11,14,39,23.90
2012,07,11,14,40,24.00
2012,07,11,14,42,24.10
2012,07,11,14,43,24.30
2012,07,11,14,44,24.40
2012,07,11,14,45,24.40
2012,07,11,14,46,24.40
2012,07,11,14,47,24.30
2012,07,11,14,48,24.30
2012,07,11,14,49,24.30
2012,07,11,14,50,24.20
2012,07,11,14,51,24.20
2012,07,11,14,52,24.20
2012,07,11,14,53,24.30
2012,07,11,14,54,24.30
2012,07,11,14,55,24.30
2012,07,11,14,56,24.30
2012,07,11,14,57,24.40
2012,07,11,14,58,24.40
2012,07,11,14,59,24.50
2012,07,11,15,00,24.60
2012,07,11,15,02,24.60
2012,07,11,15,03,24.60
2012,07,11,15,04,24.60
2012,07,11,15,05,24.50
2012,07,11,15,07,24.50
2012,07,11,15,08,24.50
2012,07,11,15,09,24.60
2012,07,11,15,10,24.60
2012,07,11,15,12,24.60
2012,07,11,15,13,24.60
2012,07,11,15,14,24.70
2012,07,11,15,15,24.80
2012,07,11,15,17,24.80
2012,07,11,15,18,25.00
2012,07,11,15,19,25.00
2012,07,11,15,20,24.90
2012,07,11,15,21,24.80
2012,07,11,15,22,24.70
2012,07,11,15,23,24.70
2012,07,11,15,24,24.60
2012,07,11,15,25,24.60
2012,07,11,15,27,24.60
2012,07,11,15,28,24.60
2012,07,11,15,29,24.70
2012,07,11,15,30,24.60
2012,07,11,15,31,24.50
2012,07,11,15,33,24.40
2012,07,11,15,34,24.40
2012,07,11,15,35,24.30
2012,07,11,15,36,24.30
2012,07,11,15,37,24.20
2012,07,11,15,38,24.20
2012,07,11,15,39,24.10
2012,07,11,15,40,23.90
2012,07,11,15,42,23.90
2012,07,11,15,43,23.90
2012,07,11,15,44,23.90
2012,07,11,15,45,23.80
2012,07,11,15,47,23.80
2012,07,11,15,48,23.80
2012,07,11,15,49,23.80
2012,07,11,15,50,23.80
2012,07,11,15,52,23.70
2012,07,11,15,53,23.70
2012,07,11,15,54,23.70
2012,07,11,15,55,23.80
2012,07,11,15,57,23.80
2012,07,11,15,58,24.00
2012,07,11,15,59,24.00
2012,07,11,16,00,24.10
2012,07,11,16,02,24.20
2012,07,11,16,03,24.40
2012,07,11,16,04,24.50
2012,07,11,16,05,24.70
2012,07,11,16,07,24.80
2012,07,11,16,08,24.80
2012,07,11,16,09,24.90
2012,07,11,16,10,25.00
2012,07,11,16,11,25.10
2012,07,11,16,12,25.10
2012,07,11,16,13,25.20
2012,07,11,16,14,25.30
2012,07,11,16,15,25.30
2012,07,11,16,16,25.30
2012,07,11,16,17,25.20
2012,07,11,16,18,25.20
2012,07,11,16,19,25.20
2012,07,11,16,20,25.20
2012,07,11,16,21,25.20
2012,07,11,16,22,25.10
2012,07,11,16,23,24.90
2012,07,11,16,24,24.90
2012,07,11,16,25,24.90
2012,07,11,16,26,24.90
2012,07,11,16,27,24.80
2012,07,11,16,28,24.60
2012,07,11,16,29,24.50
2012,07,11,16,31,24.40
2012,07,11,16,32,24.20
2012,07,11,16,33,24.10
2012,07,11,16,34,24.00
2012,07,11,16,36,23.90
2012,07,11,16,37,24.00
2012,07,11,16,38,24.00
2012,07,11,16,40,24.10
2012,07,11,16,41,24.30
2012,07,11,16,42,24.30
2012,07,11,16,43,24.30
2012,07,11,16,45,24.30
2012,07,11,16,46,24.30
2012,07,11,16,47,24.30
2012,07,11,16,48,24.40
2012,07,11,16,50,24.50
2012,07,11,16,51,24.60
2012,07,11,16,52,24.80
2012,07,11,16,53,24.90
2012,07,11,16,55,25.00
2012,07,11,16,56,25.20
2012,07,11,16,57,25.30
2012,07,11,16,58,25.30
2012,07,11,17,00,25.30
2012,07,11,17,01,25.30
2012,07,11,17,02,25.20
2012,07,11,17,03,25.00
2012,07,11,17,05,24.90
2012,07,11,17,06,24.70
2012,07,11,17,07,24.60
2012,07,11,17,08,24.50
2012,07,11,17,10,24.40
2012,07,11,17,11,24.30
2012,07,11,17,12,24.40
2012,07,11,17,14,24.40
2012,07,11,17,15,24.30
2012,07,11,17,16,24.30
2012,07,11,17,17,24.30
2012,07,11,17,18,24.30
2012,07,11,17,19,24.30
2012,07,11,17,20,24.30
2012,07,11,17,22,24.40
2012,07,11,17,23,24.40
2012,07,11,17,24,24.50
2012,07,11,17,25,24.60
2012,07,11,17,27,24.60
2012,07,11,17,28,24.70
2012,07,11,17,29,24.80
2012,07,11,17,30,24.80
2012,07,11,17,31,24.80
2012,07,11,17,32,24.80
2012,07,11,17,33,24.80
2012,07,11,17,34,24.80
2012,07,11,17,36,24.80
2012,07,11,17,37,24.70
2012,07,11,17,38,24.70
2012,07,11,17,39,24.70
2012,07,11,17,41,24.70
2012,07,11,17,42,24.80
2012,07,11,17,43,24.80
2012,07,11,17,44,24.80
2012,07,11,17,46,24.80
2012,07,11,17,47,24.80
2012,07,11,17,48,24.70
2012,07,11,17,49,24.70
2012,07,11,17,51,24.60
2012,07,11,17,52,24.40
2012,07,11,17,53,24.40
2012,07,11,17,54,24.40
2012,07,11,17,56,24.40
2012,07,11,17,57,24.50
2012,07,11,17,58,24.40
2012,07,11,17,59,24.40
2012,07,11,18,00,24.40
2012,07,11,18,01,24.30
2012,07,11,18,02,24.20
2012,07,11,18,03,24.10
2012,07,11,18,04,24.10
2012,07,11,18,05,24.00
2012,07,11,18,06,23.90
2012,07,11,18,07,23.80
2012,07,11,18,08,23.80
2012,07,11,18,09,23.80
2012,07,11,18,10,23.90
2012,07,11,18,11,23.90
2012,07,11,18,12,24.00
2012,07,11,18,13,24.10
2012,07,11,18,14,24.10
2012,07,11,18,15,24.10
2012,07,11,18,16,24.10
2012,07,11,18,17,24.10
2012,07,11,18,18,24.10
2012,07,11,18,19,24.10
2012,07,11,18,20,24.20
2012,07,11,18,21,24.20
2012,07,11,18,22,24.10
2012,07,11,18,23,24.10
2012,07,11,18,24,24.10
2012,07,11,18,25,24.10
2012,07,11,18,26,24.00
2012,07,11,18,27,24.00
2012,07,11,18,28,23.90
2012,07,11,18,29,23.80
2012,07,11,18,30,23.80
2012,07,11,18,31,23.70
2012,07,11,18,33,23.70
2012,07,11,18,34,23.70
2012,07,11,18,35,23.70
2012,07,11,18,37,23.70
2012,07,11,18,38,23.70
2012,07,11,18,39,23.70
2012,07,11,18,40,23.70
2012,07,11,18,42,23.80
2012,07,11,18,43,23.90
2012,07,11,18,44,23.90
2012,07,11,18,45,24.00
2012,07,11,18,46,24.00
2012,07,11,18,48,24.00
2012,07,11,18,49,24.00
2012,07,11,18,50,24.00
2012,07,11,18,51,24.00
2012,07,11,18,53,23.90
2012,07,11,18,54,23.90
2012,07,11,18,55,23.90
2012,07,11,18,57,23.80
2012,07,11,18,58,23.80
2012,07,11,18,59,23.80
2012,07,11,19,00,23.80
2012,07,11,19,01,23.80
2012,07,11,19,03,23.70
2012,07,11,19,04,23.80
2012,07,11,19,05,23.80
2012,07,11,19,06,23.80
2012,07,11,19,08,23.80
2012,07,11,19,09,23.80
2012,07,11,19,10,23.70
2012,07,11,19,11,23.60
2012,07,11,19,13,23.40
2012,07,11,19,14,23.30
2012,07,11,19,15,23.10
2012,07,11,19,16,23.00
2012,07,11,19,17,22.80
2012,07,11,19,19,22.70
2012,07,11,19,20,22.60
2012,07,11,19,21,22.60
2012,07,11,19,22,22.50
2012,07,11,19,24,22.50
2012,07,11,19,25,22.50
2012,07,11,19,26,22.40
2012,07,11,19,27,22.30
2012,07,11,19,28,22.20
2012,07,11,19,30,22.10
2012,07,11,19,31,22.00
2012,07,11,19,32,21.90
2012,07,11,19,34,21.90
2012,07,11,19,35,21.90
2012,07,11,19,36,21.90
2012,07,11,19,37,21.90
2012,07,11,19,39,21.90
2012,07,11,19,40,21.80
2012,07,11,19,41,21.60
2012,07,11,19,42,21.60
2012,07,11,19,43,21.40
2012,07,11,19,44,21.40
2012,07,11,19,45,21.30
2012,07,11,19,46,21.30
2012,07,11,19,48,21.20
2012,07,11,19,49,21.10
2012,07,11,19,50,21.00
2012,07,11,19,51,20.90
2012,07,11,19,52,20.90
2012,07,11,19,53,20.90
2012,07,11,19,54,20.90
2012,07,11,19,55,20.90
2012,07,11,19,56,21.00
2012,07,11,19,57,20.90
2012,07,11,19,58,20.90
2012,07,11,19,59,20.90
2012,07,11,20,00,20.90
2012,07,11,20,01,20.80
2012,07,11,20,02,20.80
2012,07,11,20,03,20.80
2012,07,11,20,04,20.70
2012,07,11,20,05,20.70
2012,07,11,20,06,20.60
2012,07,11,20,07,20.60
2012,07,11,20,08,20.60
2012,07,11,20,09,20.50
2012,07,11,20,10,20.40
2012,07,11,20,11,20.40
2012,07,11,20,12,20.30
2012,07,11,20,13,20.30
2012,07,11,20,14,20.30
2012,07,11,20,15,20.30
2012,07,11,20,17,20.20
2012,07,11,20,18,20.10